www.pogodaiklimat.ru

Погода и климат >> Архив погоды >> Россия >> Татарстан >> Лаишево


ПОГОДА в Лаишево

  • Прогноз погоды в Лаишево
  • Монитор погоды в Лаишево

АРХИВ ПОГОДЫ в Лаишево

Время (UTC), дата Ветер
(напр.,м/с)
 
Видим.   Явления Облачность Т
(С)
Тd
(С)
f
(%)
Тe
(С)
Тes
(С)
Комфортность P
(гПа)
Po
(гПа)
Тmin
(С)
Tmax
(С)
R
(мм)
R24
(мм)
S
(см)
21 12.07 С 2 н/о н/о +14.7 +13.6 93 +14 +14 1006.9 991.8
00 13.07 С 3 н/о н/о +13.7 +12.2 91 +12 +12 1004.4 989.3
03 13.07 СЗ 2 н/о н/о +13.4 +12.2 92 +13 +13 1005.0 989.9 +13.3 26
06 13.07 СЗ 2 н/о н/о +16.2 +13.5 84 +16 +16 1004.5 989.6
09 13.07 СЗ 2 н/о н/о +18.7 +12.9 69 +20 +20 1005.6 990.8
12 13.07 С 2 н/о н/о +19.6 +13.3 67 +22 +22 комфорт 1006.3 991.5
15 13.07 С 2 н/о н/о +20.0 +13.3 65 +23 +23 комфорт 1006.8 992.0 +21.7 0.3
18 13.07 С 1 н/о н/о +16.1 +13.5 85 +17 +17 1007.8 992.8
21 13.07 СЗ 1 н/о н/о +14.6 +12.8 89 +15 +15 1007.4 992.3
00 14.07 СЗ 1 н/о н/о +14.0 +12.6 91 +14 +14 1007.7 992.5
03 14.07 С 1 н/о н/о +16.0 +14.3 90 +17 +17 1008.3 993.3 +13.9
06 14.07 ЮВ 2 н/о н/о +20.4 +13.8 66 +23 +23 комфорт 1008.4 993.6
09 14.07 ЮВ 3 н/о н/о +21.1 +15.5 70 +24 +24 комфорт 1008.3 993.5
12 14.07 З 2 н/о н/о +22.5 +14.1 59 +26 +26 жарко 1008.7 994.0
15 14.07 З 1 н/о н/о +23.4 +13.9 55 +27 +27 душно 1009.1 994.4 +24.2
18 14.07 З 1 н/о н/о +17.5 +15.0 85 +19 +19 1009.2 994.2
21 14.07 С 1 н/о н/о +15.9 +14.0 88 +17 +17 1008.6 993.5
00 15.07 СЗ 1 н/о н/о +15.7 +12.9 83 +16 +16 1008.1 993.0
03 15.07 С 2 н/о н/о +16.2 +13.3 83 +16 +16 1006.5 991.5 +15.4
06 15.07 С 2 н/о н/о +18.2 +12.8 71 +19 +19 1006.3 991.4
09 15.07 СЗ 3 н/о н/о +19.8 +13.6 67 +22 +22 комфорт 1005.2 990.4
12 15.07 СЗ 2 н/о н/о +20.5 +14.1 67 +24 +24 комфорт 1005.2 990.4
15 15.07 СЗ 1 н/о н/о +20.3 +13.8 66 +24 +24 комфорт 1005.7 990.9 +22.0
18 15.07 З 2 н/о н/о +16.1 +13.9 87 +16 +16 1006.6 991.6
21 15.07 З 1 н/о н/о +14.1 +12.5 90 +14 +14 1007.3 992.1
00 16.07 З 2 н/о н/о +12.0 +10.7 92 +11 +11 1009.2 993.9
03 16.07 З 2 н/о н/о +16.0 +12.3 79 +16 +16 1010.0 994.9 +12.0 1
06 16.07 З 4 н/о н/о +21.0 +12.8 59 +24 +24 комфорт 1011.0 996.2
09 16.07 З 3 н/о н/о +23.5 +9.5 41 +24 +24 комфорт 1011.8 997.1
12 16.07 З 1 н/о н/о +23.5 +10.3 43 +25 +25 комфорт 1012.5 997.8
15 16.07 Ю 3 н/о н/о +22.7 +11.2 48 +25 +25 комфорт 1012.7 997.9 +24.8
18 16.07 штиль 0 н/о н/о +17.3 +12.3 72 +17 +17 1013.6 998.5
21 16.07 С 1 н/о н/о +15.5 +11.4 77 +16 +16 1014.1 999.0
00 17.07 СВ 2 н/о н/о +13.7 +10.6 82 +13 +13 1014.0 998.7
03 17.07 СВ 2 н/о н/о +17.0 +13.6 80 +17 +17 1014.2 999.1 +13.5
06 17.07 В 4 н/о н/о +21.6 +13.1 58 +24 +24 комфорт 1013.2 998.4
09 17.07 В 3 н/о н/о +22.5 +15.2 63 +26 +26 жарко 1012.7 997.9
12 17.07 В 4 н/о н/о +22.2 +16.0 68 +26 +26 душно 1012.0 997.2
15 17.07 ЮВ 3 н/о н/о +20.0 +15.7 76 +23 +23 комфорт 1011.6 996.7 +23.4
18 17.07 СВ 3 н/о н/о +17.3 +15.2 87 +17 +17 1010.7 995.7
21 17.07 СВ 3 н/о н/о +17.8 +14.3 80 +18 +18 1010.0 995.1
00 18.07 В 3 н/о н/о +17.6 +15.0 85 +18 +18 1009.2 994.2
03 18.07 СВ 4 н/о н/о +17.6 +15.1 85 +17 +17 1008.1 993.1 +16.9 0.3
06 18.07 СВ 5 н/о н/о +22.7 +15.9 65 +27 +27 душно 1007.2 992.5
09 18.07 СВ 6-11
{11}
н/о н/о +25.2 +16.5 59 +29 +29 душно 1005.8 991.3
12 18.07 СВ 6
{13}
н/о н/о +26.9 +16.1 52 +30 +30 душно 1005.4 991.0
15 18.07 СВ 5-10
{11}
н/о н/о +25.8 +15.1 52 +29 +29 душно 1005.4 990.9 +26.9
18 18.07 СВ 3
{10}
н/о н/о +21.7 +15.4 67 +25 +25 комфорт 1006.2 991.5
21 18.07 СВ 3 н/о н/о +19.2 +15.0 77 +21 +21 комфорт 1006.5 991.6
00 19.07 С 1 н/о н/о +17.1 +15.0 87 +18 +18 1007.1 992.1
03 19.07 ЮЗ 1 н/о н/о +18.5 +15.4 82 +20 +20 1007.7 992.9 +16.3
06 19.07 З 2 н/о н/о +20.0 +18.2 89 +24 +24 комфорт 1008.1 993.3
09 19.07 З 3 н/о н/о +25.8 +15.7 54 +29 +29 душно 1008.1 993.6
12 19.07 З 2 н/о н/о +27.6 +11.5 37 +29 +29 жарко 1008.3 993.8
15 19.07 ЮЗ 2 н/о н/о +26.5 +11.5 39 +28 +28 жарко 1008.6 994.1 +28.1 10

 

Местоположение метеостанции Лаишево (Татарстан, Россия): широта 55.42 долгота 49.53 высота над уровнем моря 129 м.

В архиве по умолчанию представлена погода в Лаишево за последнюю неделю. Архивные данные за месяц целиком и за предыдущие месяцы, начиная с января 2011 года, Вы можете получить, выбрав интересующий диапазон дат из раскрывающегося списка и нажав кнопку "Ввод!".


*Определитесь, кто Вы:
робот инопланетянин человек

Внимание! Время в таблицах - всемирное. Для получения местного времени необходимо прибавить поправку, которая равна 3 ч.

Смотрите также архив погоды в соседних городах и на ближайших метеорологических станциях:

Погода в Камском Устье (Татарстан, Россия) (29 км)
Погода в Алексеевском (Татарстан, Россия) (38 км)
Погода в Казани (Татарстан, Россия) (40 км)
Погода в Тетюшах (Татарстан, Россия) (71 км)
Погода в Чистополе (Татарстан, Россия) (72 км)
Погода в Арске (Татарстан, Россия) (76 км)
Погода в Вязовых (Татарстан, Россия) (77 км)
Погода в Больших Кайбицах (Татарстан, Россия) (85 км)
Погода в Богатых Сабах (Татарстан, Россия) (88 км)
Погода в Аксубаево (Татарстан, Россия) (103 км)

Пояснения к столбцам:

Ветер - указаны скорость ветра в м/с - средняя за 10 мин, порывы в срок и между сроками (в фигурных скобках) и направление, откуда дует ветер: С - северный, СВ - северо-восточный, В - восточный, ЮВ - юго-восточный, Ю - южный, ЮЗ - юго-западный, З - западный, СЗ - северо-западный.
Видимость - горизонтальная дальность видимости в метрах или километрах. При видимости от 1 до 10 км при отсутствии осадков обычно наблюдается дымка, при ухудшении видимости до 1 км и менее - туман. В сухую погоду видимость может ухудшаться дымом, пылью или мглою.
Явления - указаны атмосферные явления, наблюдавшиеся в срок или в последний час перед сроком; фигурными скобками обозначены явления, наблюдавшиеся между сроками (за 1-3 часа до срока); квадратными скобками обозначены град или гололедные отложения с указанием их диаметра в мм.
Облачность - указаны через наклонную черту общая и нижняя облачность в баллах и высота нижней границы облаков в метрах; квадратными скобками обозначены формы облаков: Ci - перистые, Cs - перисто-слоистые, Cc - перисто-кучевые, Ac - высококучевые, As - высокослоистые, Sc - слоисто-кучевые, Ns - слоисто-дождевые, Cu - кучевые, Cb - кучево-дождевые. Подробнее классификацию облаков см. в Атласе облаков (PDF).
T - Температура воздуха - температура, измеренная на высоте 2 м над землей.
Td - Температура точки росы - температура, при понижении до которой содержащийся в воздухе водяной пар достигнет насыщения.
f - Относительная влажность воздуха - влажноcть воздуха, измеренная на высоте 2 м над землей.
Te - Эффективная температура - температура, которую ощущает одетый по сезону человек в тени. Характеристика душности погоды. При расчете учитывается влияние влажности воздуха и скорости ветра на теплоощущения человека.
Tes - Эффективная температура на солнце - температура, которую ощущает человек, с поправкой на солнечный нагрев. Характеристика знойности погоды. Зависит от высоты солнца над горизонтом, облачности и скорости ветра. Ночью, в пасмурную погоду, а также при ветре 12 м/с и более поправка равна нулю.
P - Атмосферное давление - приведенное к уровню моря атмосферное давление.
Po - Атмосферное давление - измеренное на уровне метеостанции атмосферное давление.
Tmin - Минимальная температура - минимум температуры воздуха на высоте 2 м над землей.
Tmax - Максимальная температура - максимум температуры воздуха на высоте 2 м над землей.
R - Количество осадков - Количество выпавших осадков за период времени, мм. При наведении курсора мыши на число - период времени, за который выпало указанное количество осадков.
R24 - Количество осадков - Количество выпавших осадков за 24 часа, мм.
S - Снежный покров - Высота снежного покрова, см. При наведении курсора мыши на число - состояние снежного покрова и степень покрытия местности в баллах.